Flag for U.S.A. Weather past 2 weeks in Tulsa, Oklahoma, U.S.A.

Now
60 °F

Fog.


Feels Like: 60 °F
Forecast: 59 / 77 °F
Wind: 3 mph from East

Location: Tulsa International Airport

Current Time: Oct 21, 2014 at 9:41:43 AM

Latest Report: Oct 21, 2014 at 8:53 AM


Visibility: 2 mi

Pressure: 30.09 "Hg

Humidity: 96%

Dew point: 59 °F

Location of TulsaLocation

Historic Weather in Tulsa — Graph

°F

Tulsa temperature yesterday

Maximum temperature yesterday: 76 °F (at 3:53 PM)
Minimum temperature yesterday: 57 °F (at 3:53 AM)
Average temperature yesterday: 65 °F

Past Weeks' High & Low Weather Summary

 TemperatureHumidityPressure
High90 °F (Oct 7, 2:53 PM)100% (Oct 10, 5:53 AM)33.00 "Hg (Oct 10, 5:53 AM)
Low46 °F (Oct 15, 5:53 AM)24% (Oct 6, 3:53 PM)29.44 "Hg (Oct 13, 4:53 AM)
Average64 °F73%29.93 "Hg
* Reported Oct 6 7:53 AM — Oct 21 7:53 AM, Tulsa, Weather by CustomWeather, © 2014

Note: Actual official high and low records may vary slightly from our data, if they occured in-between our weather recording intervals... More about our weather records

Advertising

Tulsa weather history for previous 24 hours

 ConditionsComfort  
Time TempWeatherWind HumidityBarometerVisibility
7:53 AM
Oct 21
58 °FFog.5 mph97%30.07 "Hg1 mi
6:53 AM57 °FFog.No wind93%30.06 "Hg5 mi
5:53 AM56 °FPassing clouds.No wind97%30.04 "Hg7 mi
4:53 AM59 °FPassing clouds.No wind100%30.04 "Hg7 mi
3:53 AM61 °FPassing clouds.No wind93%30.03 "Hg8 mi
2:53 AM60 °FPassing clouds.No wind93%30.04 "Hg8 mi
1:53 AM61 °FPassing clouds.No wind93%30.04 "Hg9 mi
12:53 AM62 °FPassing clouds.3 mph90%30.03 "Hg9 mi
11:53 PM
Oct 20
63 °FPassing clouds.No wind90%30.03 "Hg10 mi
10:53 PM65 °FPartly cloudy.5 mph85%30.04 "Hg10 mi
9:53 PM65 °FOvercast.5 mph87%30.03 "Hg10 mi
8:53 PM66 °FPassing clouds.3 mph81%30.02 "Hg10 mi
7:53 PM68 °FPassing clouds.7 mph78%30.01 "Hg10 mi
6:53 PM69 °FPassing clouds.5 mph76%30.00 "Hg10 mi
5:53 PM74 °FPassing clouds.5 mph64%29.99 "Hg10 mi
4:53 PM76 °FPassing clouds.3 mph58%29.99 "Hg10 mi
3:53 PM76 °FPassing clouds.No wind60%29.99 "Hg10 mi
2:53 PM75 °FPassing clouds.No wind60%29.99 "Hg10 mi
1:53 PM74 °FSunny.No wind62%30.01 "Hg10 mi
12:53 PM71 °FSunny.5 mph63%30.02 "Hg10 mi
11:53 AM67 °FPassing clouds.3 mph71%30.03 "Hg10 mi
10:53 AM62 °FBroken clouds.5 mph78%30.06 "Hg10 mi
9:53 AM59 °FMostly cloudy.6 mph87%30.08 "Hg10 mi
Weather by CustomWeather, © 2014

See weather overviewHow to use our weather pages